Flag for Canada Weather past 2 weeks in Arviat, Nunavut, Canada

-18 °F


Feels Like: -42 °F
Forecast: -18 / 4 °F
Wind: 14 mph from North

Location: Arviat Airport

Current Time: Nov 28, 2015 at 12:13:23 AM

Latest Report: Nov 27, 2015 at 11:00 PM

Visibility: 9 mi

Pressure: 30.24 "Hg

Humidity: 75%

Dew point: -24 °F

Location of ArviatLocation

Historic Weather in Arviat — Graph


Arviat temperature yesterday

Maximum temperature yesterday: 12 °F (at 7:00 AM)
Minimum temperature yesterday: -18 °F (at 9:00 PM)
Average temperature yesterday: -1 °F

Past Weeks' High & Low Weather Summary

High32 °F (Nov 16, 10:00 PM)100% (Nov 13, 2:00 AM)30.39 "Hg (Nov 13, 2:00 AM)
Low-20 °F (Nov 21, 7:00 AM)68% (Nov 21, 10:00 AM)29.28 "Hg (Nov 18, 3:00 AM)
Average4 °F86%29.90 "Hg
* Reported Nov 12 10:00 PM — Nov 27 10:00 PM, Arviat, Weather by CustomWeather, © 2015

Note: Actual official high and low records may vary slightly from our data, if they occured in-between our weather recording intervals... More about our weather records


Arviat weather history for previous 24 hours

Time TempWeatherWind HumidityBarometerVisibility
10:00 PM
Fri, Nov 27
-18 °FClear.12 mph75%30.25 "Hg9 mi
9:00 PM-18 °FClear.18 mph75%30.23 "Hg9 mi
8:00 PM-17 °FClear.15 mph76%30.22 "Hg9 mi
7:00 PM-15 °FClear.15 mph76%30.22 "Hg9 mi
6:00 PM-13 °FClear.16 mph76%30.20 "Hg9 mi
5:00 PM-9 °FLow level haze.17 mph84%30.19 "Hg15 mi
4:00 PM-8 °FSnow flurries. Low clouds.16 mph84%30.17 "Hg5 mi
3:00 PM-6 °FSnow flurries. Scattered clouds.18 mph84%30.15 "Hg2 mi
2:49 PM-6 °FSnow flurries. Partly sunny.20 mph84%30.14 "Hg1 mi
2:00 PM-2 °FSnow flurries. Overcast.17 mph84%30.11 "Hg3 mi
1:03 PM-2 °FScattered clouds.16 mph84%30.09 "Hg15 mi
12:00 PM-2 °FLow level haze.16 mph84%30.08 "Hg7 mi
11:00 AM9 °FLight snow. Partly sunny.21 mph85%30.06 "Hg3 mi
10:00 AM9 °FLight snow. Overcast.22 mph92%30.05 "Hg3 mi
9:00 AM9 °FLight snow. Mostly cloudy.21 mph92%30.04 "Hg1 mi
8:54 AM9 °FLight snow. Cloudy.22 mph92%30.03 "Hg1 mi
8:00 AM10 °FLight snow. Overcast.21 mph92%30.03 "Hg2 mi
7:00 AM12 °FLight snow. Mostly cloudy.21 mph92%30.03 "Hg4 mi
6:00 AM10 °FLight snow. Partly cloudy.16 mph92%30.03 "Hg9 mi
5:00 AM10 °FLight snow. Passing clouds.15 mph85%30.02 "Hg9 mi
4:58 AM10 °FLight snow. Passing clouds.14 mph85%30.02 "Hg8 mi
4:00 AM9 °FLight snow. Passing clouds.12 mph92%30.04 "Hg4 mi
3:01 AM3 °FLight snow. Overcast.7 mph92%30.06 "Hg2 mi
2:00 AM1 °FLight snow. Overcast.6 mph92%30.08 "Hg2 mi
1:00 AM0 °FLight snow. Overcast.2 mph92%30.10 "Hg3 mi
12:00 AM0 °FLight snow. Overcast.5 mph84%30.14 "Hg2 mi
Weather by CustomWeather, © 2015

See weather overviewHow to use our weather pages